�������l�o���
Date,Time,MP-1(��Sv/h),MP-2(��Sv/h),MP-3(��Sv/h),MP-4(��Sv/h),MP-5(��Sv/h),MP-6(��Sv/h),MP-7(��Sv/h),����,����(m/s),���J
2018/07/30,00:00,0.322,0.199,0.322,0.307,0.283,0.154,0.096,��쓌,3.3,��
2018/07/30,00:10,0.321,0.198,0.321,0.310,0.282,0.155,0.096,��,3.6,��
2018/07/30,00:20,0.319,0.199,0.324,0.309,0.284,0.157,0.096,��,3.7,��
2018/07/30,00:30,0.317,0.201,0.325,0.307,0.284,0.156,0.095,��,3.0,��
2018/07/30,00:40,0.322,0.199,0.322,0.308,0.284,0.155,0.096,��쓌,2.3,��
2018/07/30,00:50,0.322,0.198,0.321,0.311,0.282,0.156,0.096,��쓌,1.2,��
2018/07/30,01:00,0.318,0.199,0.325,0.309,0.283,0.156,0.095,��,2.4,��
2018/07/30,01:10,0.317,0.200,0.325,0.307,0.286,0.157,0.097,��쓌,2.5,�L
2018/07/30,01:20,0.322,0.199,0.322,0.307,0.284,0.156,0.096,��쓌,2.3,��
2018/07/30,01:30,0.322,0.197,0.321,0.312,0.283,0.154,0.096,��쓌,3.0,��
2018/07/30,01:40,0.320,0.199,0.325,0.310,0.285,0.156,0.096,��쓌,3.2,��
2018/07/30,01:50,0.318,0.200,0.326,0.306,0.285,0.157,0.096,��쓌,3.0,��
2018/07/30,02:00,0.324,0.199,0.322,0.309,0.285,0.156,0.097,��쓌,2.8,��
2018/07/30,02:10,0.322,0.198,0.322,0.311,0.281,0.156,0.096,�쓌,2.8,��
2018/07/30,02:20,0.318,0.201,0.326,0.311,0.284,0.156,0.096,��쓌,2.4,��
2018/07/30,02:30,0.319,0.200,0.324,0.306,0.287,0.156,0.096,��쓌,2.8,��
2018/07/30,02:40,0.322,0.198,0.321,0.309,0.283,0.156,0.096,��쓌,2.4,��
2018/07/30,02:50,0.322,0.198,0.323,0.311,0.281,0.155,0.096,��,2.3,��
2018/07/30,03:00,0.319,0.201,0.327,0.309,0.284,0.156,0.096,��,2.9,��
2018/07/30,03:10,0.318,0.199,0.325,0.307,0.286,0.157,0.096,��,2.2,��
2018/07/30,03:20,0.322,0.198,0.322,0.307,0.283,0.157,0.097,��,2.4,��
2018/07/30,03:30,0.322,0.199,0.324,0.311,0.282,0.155,0.096,��,2.3,��
2018/07/30,03:40,0.319,0.200,0.326,0.309,0.283,0.156,0.096,��,1.7,��
2018/07/30,03:50,0.316,0.200,0.325,0.308,0.285,0.157,0.097,-,CALM,��
2018/07/30,04:00,0.322,0.199,0.322,0.308,0.285,0.156,0.096,-,CALM,�L
2018/07/30,04:10,0.323,0.197,0.323,0.311,0.283,0.155,0.095,��,0.7,��
2018/07/30,04:20,0.319,0.201,0.326,0.310,0.284,0.156,0.096,-,CALM,��
2018/07/30,04:30,0.318,0.199,0.324,0.307,0.287,0.156,0.097,-,CALM,��
2018/07/30,04:40,0.323,0.198,0.323,0.309,0.284,0.156,0.096,-,CALM,��
2018/07/30,04:50,0.322,0.198,0.325,0.311,0.282,0.156,0.095,-,CALM,��
2018/07/30,05:00,0.318,0.200,0.327,0.310,0.283,0.157,0.097,��쓌,0.9,��
2018/07/30,05:10,0.317,0.200,0.324,0.306,0.287,0.157,0.096,-,CALM,��
2018/07/30,05:20,0.322,0.197,0.323,0.308,0.285,0.157,0.097,-,CALM,��
2018/07/30,05:30,0.323,0.197,0.326,0.311,0.283,0.156,0.096,-,CALM,��
2018/07/30,05:40,0.319,0.200,0.327,0.310,0.282,0.155,0.097,-,CALM,��
2018/07/30,05:50,0.317,0.199,0.323,0.307,0.286,0.156,0.097,���쐼,0.6,��
2018/07/30,06:00,0.322,0.197,0.322,0.307,0.286,0.156,0.095,-,CALM,��
2018/07/30,06:10,0.322,0.198,0.325,0.311,0.283,0.155,0.096,��,0.6,��
2018/07/30,06:20,0.320,0.199,0.327,0.310,0.281,0.156,0.096,��,0.6,��
2018/07/30,06:30,0.317,0.200,0.324,0.308,0.283,0.157,0.095,��,0.6,��
2018/07/30,06:40,0.319,0.200,0.322,0.307,0.288,0.157,0.096,-,CALM,��
2018/07/30,06:50,0.324,0.198,0.323,0.308,0.284,0.157,0.096,�k,1.1,��
2018/07/30,07:00,0.322,0.198,0.327,0.312,0.284,0.156,0.095,�k,0.6,��
2018/07/30,07:10,0.319,0.198,0.323,0.310,0.282,0.156,0.096,�k�k��,1.2,��
2018/07/30,07:20,0.317,0.197,0.322,0.309,0.282,0.156,0.095,�k��,0.8,��
2018/07/30,07:30,0.317,0.198,0.321,0.308,0.282,0.157,0.095,�k��,1.4,��
2018/07/30,07:40,0.321,0.197,0.320,0.306,0.282,0.157,0.095,�k��,2.2,��
2018/07/30,07:50,0.323,0.198,0.321,0.307,0.282,0.157,0.095,�k��,1.7,��
2018/07/30,08:00,0.322,0.201,0.326,0.306,0.283,0.155,0.097,�k��,1.1,��
2018/07/30,08:10,0.319,0.200,0.326,0.309,0.283,0.156,0.097,�k��,1.2,��
2018/07/30,08:20,0.317,0.200,0.325,0.312,0.283,0.157,0.097,���k��,1.1,��
2018/07/30,08:30,0.317,0.199,0.323,0.311,0.283,0.156,0.096,���k��,1.2,��
2018/07/30,08:40,0.318,0.198,0.322,0.309,0.284,0.156,0.096,��,0.6,��
2018/07/30,08:50,0.324,0.198,0.322,0.309,0.283,0.157,0.096,-,CALM,��
2018/07/30,09:00,0.323,0.199,0.321,0.308,0.285,0.156,0.095,-,CALM,��
2018/07/30,09:10,0.322,0.198,0.323,0.308,0.284,0.156,0.095,���k��,1.0,��
2018/07/30,09:20,0.319,0.199,0.326,0.307,0.283,0.156,0.096,��,0.7,��
2018/07/30,09:30,0.320,0.199,0.326,0.308,0.285,0.156,0.095,��,1.5,��
2018/07/30,09:40,0.319,0.200,0.325,0.310,0.287,0.157,0.096,���쓌,1.0,��
2018/07/30,09:50,0.320,0.201,0.324,0.311,0.286,0.157,0.097,���쓌,1.2,��
2018/07/30,10:00,0.321,0.200,0.322,0.310,0.287,0.159,0.096,���쓌,1.2,��
2018/07/30,10:10,0.320,0.202,0.323,0.311,0.287,0.158,0.096,-,CALM,��
2018/07/30,10:20,0.321,0.200,0.322,0.310,0.286,0.158,0.097,�쓌,1.6,��
2018/07/30,10:30,0.323,0.200,0.324,0.310,0.286,0.157,0.096,���쓌,2.3,��
2018/07/30,10:40,0.321,0.200,0.324,0.311,0.287,0.158,0.096,�쓌,2.0,��
2018/07/30,10:50,0.323,0.201,0.326,0.311,0.286,0.157,0.096,���쓌,2.2,��
2018/07/30,11:00,0.322,0.201,0.325,0.310,0.285,0.158,0.095,���쓌,2.3,��
2018/07/30,11:10,0.320,0.202,0.326,0.310,0.286,0.157,0.097,�쓌,1.8,��
2018/07/30,11:20,0.321,0.202,0.326,0.311,0.286,0.157,0.096,�쓌,2.4,��
2018/07/30,11:30,0.323,0.200,0.326,0.312,0.287,0.157,0.098,���쓌,2.4,��
2018/07/30,11:40,0.320,0.200,0.325,0.311,0.286,0.158,0.096,���쓌,2.7,��
2018/07/30,11:50,0.320,0.201,0.325,0.310,0.286,0.157,0.096,�쓌,2.7,��
2018/07/30,12:00,0.322,0.201,0.324,0.310,0.286,0.157,0.096,�쓌,3.0,��
2018/07/30,12:10,0.321,0.201,0.325,0.310,0.287,0.158,0.096,�쓌,2.7,��
2018/07/30,12:20,0.321,0.200,0.324,0.309,0.286,0.158,0.096,���쓌,2.2,��
2018/07/30,12:30,0.321,0.201,0.324,0.310,0.286,0.158,0.097,��쓌,1.8,��
2018/07/30,12:40,0.321,0.201,0.324,0.311,0.289,0.158,0.097,��쓌,3.2,��
2018/07/30,12:50,0.322,0.201,0.324,0.311,0.287,0.157,0.096,��쓌,3.3,��
2018/07/30,13:00,0.322,0.201,0.325,0.312,0.287,0.158,0.097,�쓌,1.6,��
2018/07/30,13:10,0.323,0.201,0.325,0.311,0.285,0.157,0.098,��쓌,1.0,��
2018/07/30,13:20,0.322,0.202,0.326,0.312,0.287,0.158,0.096,��쓌,2.8,��
2018/07/30,13:30,0.324,0.202,0.327,0.313,0.287,0.159,0.096,��쓌,2.7,��
2018/07/30,13:40,0.323,0.202,0.327,0.313,0.287,0.158,0.096,��쓌,1.6,��
2018/07/30,13:50,0.323,0.203,0.326,0.312,0.287,0.158,0.096,-,CALM,��
2018/07/30,14:00,0.323,0.201,0.327,0.313,0.288,0.158,0.097,-,CALM,��
2018/07/30,14:10,0.323,0.201,0.327,0.312,0.287,0.158,0.097,-,CALM,��
2018/07/30,14:20,0.326,0.203,0.327,0.313,0.288,0.158,0.097,-,CALM,��
2018/07/30,14:30,0.324,0.201,0.326,0.311,0.287,0.158,0.097,��,4.3,��
2018/07/30,14:40,0.323,0.201,0.328,0.311,0.288,0.158,0.096,��,4.7,��
2018/07/30,14:50,0.325,0.200,0.326,0.312,0.285,0.158,0.096,��,5.6,��
2018/07/30,15:00,0.323,0.200,0.325,0.311,0.286,0.158,0.097,��,4.6,��
2018/07/30,15:10,0.324,0.200,0.324,0.311,0.287,0.157,0.097,��,5.1,��
2018/07/30,15:20,0.323,0.202,0.325,0.312,0.287,0.158,0.097,��,5.1,��
2018/07/30,15:30,0.322,0.201,0.325,0.311,0.286,0.158,0.097,��,4.5,��
2018/07/30,15:40,0.321,0.201,0.326,0.311,0.287,0.158,0.097,��쓌,1.4,��
2018/07/30,15:50,0.321,0.200,0.326,0.310,0.286,0.157,0.098,��쓌,2.0,��
2018/07/30,16:00,0.322,0.201,0.326,0.310,0.286,0.158,0.097,��,0.8,��
2018/07/30,16:10,0.321,0.201,0.325,0.311,0.287,0.158,0.096,-,CALM,��
2018/07/30,16:20,0.322,0.201,0.325,0.310,0.288,0.158,0.097,��쓌,2.6,��
2018/07/30,16:30,0.320,0.199,0.323,0.310,0.288,0.158,0.096,��쓌,1.0,��
2018/07/30,16:40,0.321,0.201,0.324,0.315,0.287,0.157,0.096,��쓌,1.7,��
2018/07/30,16:50,0.322,0.199,0.324,0.317,0.287,0.157,0.096,��,4.0,��
2018/07/30,17:00,0.321,0.199,0.326,0.314,0.287,0.158,0.097,��,6.0,��
2018/07/30,17:10,0.322,0.199,0.330,0.314,0.287,0.157,0.098,��,6.2,��
2018/07/30,17:20,0.323,0.199,0.329,0.311,0.289,0.157,0.097,��,5.6,��
2018/07/30,17:30,0.324,0.202,0.327,0.311,0.288,0.157,0.097,��,4.7,��
2018/07/30,17:40,0.322,0.201,0.325,0.313,0.288,0.158,0.097,��,5.0,��
2018/07/30,17:50,0.322,0.201,0.324,0.315,0.284,0.159,0.096,��,5.3,��
2018/07/30,18:00,0.322,0.201,0.325,0.314,0.286,0.158,0.098,��,4.8,��
2018/07/30,18:10,0.321,0.201,0.330,0.313,0.286,0.159,0.096,��,4.6,��
2018/07/30,18:20,0.321,0.199,0.330,0.310,0.284,0.158,0.096,��,5.2,��
2018/07/30,18:30,0.320,0.202,0.326,0.313,0.285,0.158,0.097,��,5.0,��
2018/07/30,18:40,0.320,0.202,0.325,0.316,0.287,0.158,0.098,��,5.1,��
2018/07/30,18:50,0.323,0.201,0.325,0.314,0.290,0.160,0.097,��,4.5,��
2018/07/30,19:00,0.326,0.201,0.331,0.312,0.288,0.159,0.097,��,2.9,��
2018/07/30,19:10,0.324,0.201,0.329,0.311,0.287,0.158,0.097,��,2.3,��
2018/07/30,19:20,0.323,0.202,0.325,0.316,0.284,0.156,0.096,��쐼,3.1,��
2018/07/30,19:30,0.321,0.201,0.325,0.315,0.289,0.159,0.097,��,3.3,��
2018/07/30,19:40,0.323,0.201,0.329,0.313,0.287,0.158,0.097,��,5.1,��
2018/07/30,19:50,0.325,0.201,0.329,0.311,0.287,0.158,0.096,��,3.9,��
2018/07/30,20:00,0.324,0.202,0.328,0.312,0.286,0.158,0.096,��,6.0,��
2018/07/30,20:10,0.320,0.200,0.325,0.315,0.289,0.158,0.097,��,4.9,��
2018/07/30,20:20,0.321,0.201,0.329,0.313,0.288,0.159,0.097,��,4.0,��
2018/07/30,20:30,0.325,0.201,0.329,0.311,0.288,0.158,0.097,��,5.1,��
2018/07/30,20:40,0.325,0.202,0.327,0.313,0.285,0.158,0.096,��,5.1,��
2018/07/30,20:50,0.322,0.200,0.325,0.317,0.288,0.159,0.098,��,6.1,��
2018/07/30,21:00,0.321,0.199,0.329,0.313,0.290,0.159,0.098,��,6.3,��
2018/07/30,21:10,0.326,0.202,0.330,0.309,0.287,0.159,0.097,��,5.4,��
2018/07/30,21:20,0.325,0.203,0.326,0.314,0.284,0.158,0.096,��,4.9,��
2018/07/30,21:30,0.323,0.202,0.325,0.315,0.289,0.158,0.097,��,5.0,��
2018/07/30,21:40,0.321,0.199,0.329,0.314,0.290,0.159,0.097,��,5.2,��
2018/07/30,21:50,0.320,0.201,0.329,0.312,0.288,0.158,0.097,��,5.8,��
2018/07/30,22:00,0.326,0.202,0.327,0.311,0.285,0.158,0.097,��,4.8,��
2018/07/30,22:10,0.324,0.202,0.324,0.317,0.287,0.157,0.096,��,3.3,��
2018/07/30,22:20,0.320,0.199,0.328,0.315,0.289,0.158,0.098,��,3.9,��
2018/07/30,22:30,0.319,0.202,0.329,0.313,0.288,0.159,0.097,��,4.6,��
2018/07/30,22:40,0.325,0.202,0.327,0.310,0.285,0.159,0.097,��,3.6,��
2018/07/30,22:50,0.325,0.201,0.326,0.315,0.287,0.158,0.097,��쐼,4.3,��
2018/07/30,23:00,0.321,0.199,0.328,0.316,0.289,0.158,0.098,��,4.5,��
2018/07/30,23:10,0.321,0.202,0.330,0.314,0.288,0.159,0.098,��,3.7,��
2018/07/30,23:20,0.325,0.203,0.328,0.312,0.285,0.158,0.097,��,3.1,��
2018/07/30,23:30,0.325,0.201,0.326,0.313,0.287,0.157,0.096,��,2.2,��
2018/07/30,23:40,0.324,0.201,0.326,0.318,0.291,0.159,0.097,��,1.8,��
2018/07/30,23:50,0.320,0.202,0.332,0.314,0.288,0.160,0.098,��,2.3,��
